VE7ALB Weather Reports


time (UTC)temp
C
wind
direction
speed
KPH
gust
KPH
rain 1hr
cm
rain 24hr
cm
rain mn
cm
humidity
%
barometer
mb
20260503213015 24 0 6.4 17.7 0.00 0.00 0.00 37 1012.0
20260503212015 23 45 4.8 12.9 0.00 0.00 0.00 39 1012.1
20260503211016 23 0 6.4 19.3 0.00 0.00 0.00 39 1012.2
20260503210015 23 68 6.4 16.1 0.00 0.00 0.00 42 1012.4
20260503205057 22 45 6.4 14.5 0.00 0.00 0.00 42 1012.5
20260503204015 22 90 6.4 17.7 0.00 0.00 0.00 41 1012.7
20260503203015 22 68 8.0 20.9 0.00 0.00 0.00 42 1012.7
20260503202016 22 68 6.4 20.9 0.00 0.00 0.00 43 1012.9
20260503201015 22 68 6.4 17.7 0.00 0.00 0.00 44 1013.0
20260503200015 22 68 6.4 22.5 0.00 0.00 0.00 45 1013.2
20260503195038 22 90 6.4 22.5 0.00 0.00 0.00 44 1013.2
20260503194016 22 68 6.4 16.1 0.00 0.00 0.00 46 1013.2
20260503193015 22 68 8.0 17.7 0.00 0.00 0.00 44 1013.2
20260503192017 21 90 6.4 20.9 0.00 0.00 0.00 47 1013.2
20260503191036 21 68 8.0 16.1 0.00 0.00 0.00 45 1013.4
20260503190016 21 68 8.0 16.1 0.00 0.00 0.00 46 1013.5
20260503185017 21 68 8.0 17.7 0.00 0.00 0.00 45 1013.6
20260503184015 21 90 6.4 16.1 0.00 0.00 0.00 45 1013.8
20260503183015 21 68 6.4 17.7 0.00 0.00 0.00 45 1013.9
20260503182017 21 68 4.8 14.5 0.00 0.00 0.00 48 1013.9
20260503181017 21 90 6.4 14.5 0.00 0.00 0.00 47 1014.0
20260503180015 20 68 6.4 20.9 0.00 0.00 0.00 48 1014.0
20260503175015 20 68 6.4 14.5 0.00 0.00 0.00 48 1014.1
20260503174035 20 68 6.4 16.1 0.00 0.00 0.00 49 1014.1
20260503173015 20 68 8.0 17.7 0.00 0.00 0.00 48 1014.1
20260503172017 20 68 8.0 20.9 0.00 0.00 0.00 47 1014.2
20260503171016 20 0 4.8 12.9 0.00 0.00 0.00 47 1014.2
20260503131015 10 0.0 1.6 0.00 0.03 0.00 83 1014.2
20260503081017 14 0.0 0.0 0.00 0.03 0.00 71 1014.1
20260503072017 14 0.0 0.0 0.00 0.03 0.00 71 1013.9
20260503071017 14 0.0 0.0 0.00 0.03 0.00 70 1013.9
20260503055039 16 0.0 4.8 0.00 0.03 0.00 63 1013.9
20260503054017 16 0.0 0.0 0.00 0.03 0.00 63 1014.0
20260503053017 16 0.0 4.8 0.00 0.03 0.00 62 1014.0
20260503052017 16 0.0 1.6 0.00 0.03 0.00 60 1014.0
20260503051017 17 0.0 1.6 0.00 0.03 0.00 60 1014.0
20260503050017 17 0.0 1.6 0.00 0.03 0.00 58 1014.0
20260503045017 17 0.0 1.6 0.00 0.03 0.00 56 1013.9
20260503044019 17 0.0 8.0 0.00 0.03 0.00 55 1013.8
20260503043017 17 0.0 0.0 0.00 0.03 0.00 56 1013.8
20260503042017 17 0.0 0.0 0.00 0.03 0.00 56 1013.8
20260503041017 17 0.0 0.0 0.00 0.03 0.00 56 1013.8
20260503040017 17 0.0 0.0 0.00 0.03 0.00 56 1013.6
20260503035041 18 0.0 0.0 0.00 0.03 0.00 56 1013.5
20260503034019 18 0.0 0.0 0.00 0.03 0.00 55 1013.4
20260503033018 18 0.0 4.8 0.00 0.03 0.00 54 1013.3
20260503032017 19 0.0 1.6 0.00 0.03 0.00 53 1013.1
20260503031018 20 0.0 0.0 0.00 0.03 0.00 52 1013.1
20260503030017 20 0.0 0.0 0.00 0.03 0.00 50 1013.1
20260503025017 21 0.0 0.0 0.00 0.03 0.00 48 1013.1
20260503024019 21 0.0 1.6 0.00 0.03 0.00 47 1013.1
20260503023017 22 0.0 0.0 0.00 0.03 0.00 46 1013.1
20260503022018 22 0.0 1.6 0.00 0.03 0.00 46 1013.1
20260503021019 22 0.0 4.8 0.00 0.03 0.00 45 1013.1
20260503020017 23 0.0 6.4 0.00 0.03 0.00 44 1013.1
20260503015019 23 0.0 4.8 0.00 0.03 0.00 44 1013.2
20260503014017 23 0.0 1.6 0.00 0.03 0.00 43 1013.2
20260503013019 24 0.0 1.6 0.00 0.03 0.00 42 1013.3
20260503012017 24 0.0 3.2 0.00 0.03 0.00 40 1013.4
20260503011017 24 45 1.6 9.7 0.00 0.03 0.00 39 1013.4
20260503010017 25 68 3.2 11.3 0.00 0.03 0.00 37 1013.6
20260503005039 25 0.0 3.2 0.00 0.03 0.00 37 1013.6
20260503004037 25 0.0 3.2 0.00 0.03 0.00 36 1013.7
20260503003017 25 90 1.6 4.8 0.00 0.03 0.00 37 1013.7
20260503002017 25 68 1.6 8.0 0.00 0.03 0.00 38 1013.8
20260503001017 24 68 3.2 11.3 0.00 0.03 0.00 38 1013.8
20260503000018 25 68 3.2 9.7 0.00 0.03 0.03 36 1014.0
20260502235017 26 0.0 4.8 0.00 0.03 0.03 36 1014.1
20260502234037 26 0.0 4.8 0.00 0.03 0.03 41 1014.2
20260502233015 25 158 1.6 6.4 0.00 0.03 0.03 41 1014.3
20260502232016 25 135 1.6 4.8 0.00 0.03 0.03 42 1014.4
20260502231015 24 90 1.6 8.0 0.00 0.03 0.03 40 1014.5
20260502230037 23 90 3.2 11.3 0.00 0.03 0.03 40 1014.7
20260502225017 23 68 3.2 11.3 0.00 0.03 0.03 41 1014.8
20260502224015 23 68 3.2 9.7 0.00 0.03 0.03 41 1014.9
20260502223015 23 68 4.8 12.9 0.00 0.03 0.03 43 1014.9
20260502222015 23 68 3.2 12.9 0.00 0.03 0.03 43 1015.1
20260502221015 22 90 4.8 12.9 0.00 0.03 0.03 43 1015.2
20260502220017 22 68 4.8 14.5 0.00 0.03 0.03 43 1015.4
20260502215015 22 45 4.8 12.9 0.00 0.03 0.03 44 1015.5
20260502214016 22 45 4.8 14.5 0.00 0.03 0.03 46 1015.7